{"data":{"norad_id":41942,"intl_designator":"2017-006A","name":"HISPASAT 36W-1","alt_names":[],"object_type":"PAYLOAD","status":"ACTIVE","operator":null,"country":"SPN","launch_date":"2017-01-28","launch_site_code":"FRGUI","launch_vehicle":null,"mission":null,"orbit_class":"UNKNOWN","rcs_meters":3.1648,"size_class":null,"mass_kg":null,"dimensions":null,"purposes":["comms"],"wikipedia_slug":null,"has_3d_model":false,"image_url":null,"decayed_at":null,"tle_current":{"epoch":"2026-09-20T01:21:10.596096Z","epoch_age_seconds":64167,"freshness":"FRESH","line1":"1 41942U 17006A   26263.05637264 -.00000249  00000+0  00000+0 0  9990","line2":"2 41942   0.0175 349.5535 0000989 183.6740 170.0349  1.00271391 35190","mean_motion":1.00271391,"eccentricity":9.89e-5,"inclination_deg":0.0175,"raan_deg":349.5535,"arg_perigee_deg":183.674,"mean_anomaly_deg":170.0349,"bstar":0,"rev_number":3519,"period_min":1436.1025469368,"perigee_km":35782.53531114,"apogee_km":35790.87551697,"semimajor_km":42164.842414055,"source":"CELESTRAK","updated_at":"2026-09-20T09:00:35.251078Z"}}}